Location: Carrizo Plain National Monument
(35.0903°N, 119.7316°W)
Time: 08:03:24
(UTC-07:00)

CUBEBUG 2 - Visible Passes

Search period start: 04 April 2020 00:00
Search period end: 14 April 2020 00:00
Orbit: 586 x 697 km, 97.6° (Epoch: 04 April)

Date Brightness Start Highest point End Pass type
(mag) Time Alt. Az. Time Alt. Az. Time Alt. Az.
04 Apr ? 04:41:19 10° ENE 04:43:12 13° E 04:45:04 10° ESE visible
04 Apr ? 06:15:48 10° N 06:20:03 45° WNW 06:24:08 10° SSW visible
05 Apr ? 05:03:54 10° NE 05:07:28 24° E 05:10:55 10° SSE visible
06 Apr ? 05:27:24 10° NNE 05:31:38 45° E 05:35:43 10° S visible
07 Apr ? 05:51:18 10° NNE 05:55:43 89° W 05:59:57 10° SSW visible
08 Apr ? 04:41:04 10° ENE 04:42:52 12° E 04:44:38 10° ESE visible
09 Apr ? 05:03:38 10° NE 05:07:07 24° E 05:10:31 10° SSE visible
10 Apr ? 05:27:07 10° NNE 05:31:17 45° E 05:35:19 10° S visible
11 Apr ? 05:51:01 10° NNE 05:55:22 88° WNW 05:59:34 10° SSW visible
12 Apr ? 04:40:48 10° ENE 04:42:31 12° E 04:44:13 10° ESE visible
13 Apr ? 05:03:20 10° NE 05:06:46 23° E 05:10:08 10° SSE visible
